,,,PA_Meas_PMT16A,,PR_Meas_QMR101_102,,RH_Meas_QMH101,,SR_Meas_QMS101,,TA_Meas_QMH101,,GenWind,,GenWind,
date,time,status,PA,status,PR,status,RH,status,SR,status,TA,status,DirAvg,status,SpdAvg,
2013-01-17, 00:00:04,VALID,1010.61,VALID,0,VALID,88.108,VALID,0,VALID,25.1167,VALID,356,VALID,0.398828,
2013-01-17, 00:01:04,VALID,1010.6,VALID,0,VALID,88.6341,VALID,0,VALID,25.1167,VALID,356,VALID,0.23125,
2013-01-17, 00:02:04,VALID,1010.58,VALID,0,VALID,90.1745,VALID,0,VALID,25.1167,VALID,356,VALID,0.107422,
2013-01-17, 00:03:04,VALID,1010.56,VALID,0,VALID,91.9208,VALID,0,VALID,25.0973,VALID,356,VALID,0.0910156,
2013-01-17, 00:04:04,VALID,1010.52,VALID,0,VALID,89.9991,VALID,0,VALID,25.0778,VALID,356,VALID,0.272266,
2013-01-17, 00:05:04,VALID,1010.5,VALID,0,VALID,89.1298,VALID,0,VALID,25.0583,VALID,356,VALID,0.252344,
2013-01-17, 00:06:04,VALID,1010.48,VALID,0,VALID,88.8553,VALID,0,VALID,25.0583,VALID,356,VALID,0.05625,
2013-01-17, 00:07:04,VALID,1010.45,VALID,0,VALID,91.6234,VALID,0,VALID,25.0583,VALID,356,VALID,0.0320312,
2013-01-17, 00:08:04,VALID,1010.44,VALID,0,VALID,93.3468,VALID,0,VALID,25.0583,VALID,356,VALID,0.0949219,
2013-01-17, 00:09:04,VALID,1010.39,VALID,0,VALID,92.386,VALID,0,VALID,25.0193,VALID,356,VALID,0.112891,
2013-01-17, 00:10:04,VALID,1010.38,VALID,0,VALID,93.8807,VALID,0,VALID,25.0193,VALID,356,VALID,0.0554687,
2013-01-17, 00:11:04,VALID,1010.41,VALID,0,VALID,95.4134,VALID,0,VALID,25.0193,VALID,356,VALID,0.325781,
2013-01-17, 00:12:04,VALID,1010.39,VALID,0,VALID,94.8491,VALID,0,VALID,24.9608,VALID,356,VALID,0.427344,
2013-01-17, 00:13:04,VALID,1010.35,VALID,0,VALID,94.1857,VALID,0,VALID,24.9413,VALID,356,VALID,0.472266,
2013-01-17, 00:14:04,VALID,1010.38,VALID,0,VALID,95.3677,VALID,0,VALID,24.9413,VALID,356,VALID,0.383984,
2013-01-17, 00:15:04,VALID,1010.36,VALID,0,VALID,94.9178,VALID,0,VALID,24.9218,VALID,356,VALID,0.383984,
2013-01-17, 00:16:04,VALID,1010.33,VALID,0,VALID,94.7881,VALID,0,VALID,24.9023,VALID,356,VALID,0.371484,
2013-01-17, 00:17:04,VALID,1010.32,VALID,0,VALID,95.0093,VALID,0,VALID,24.8828,VALID,4,VALID,0.561719,
2013-01-17, 00:18:04,VALID,1010.29,VALID,0,VALID,97.9071,VALID,0,VALID,24.8828,VALID,33,VALID,0.238672,
2013-01-17, 00:19:04,VALID,1010.25,VALID,0,VALID,98.9365,VALID,0,VALID,24.8828,VALID,33,VALID,0.194531,
2013-01-17, 00:20:04,VALID,1010.25,VALID,0,VALID,97.8003,VALID,0,VALID,24.8633,VALID,33,VALID,0.499219,
2013-01-17, 00:21:04,VALID,1010.24,VALID,0,VALID,98.0062,VALID,0,VALID,24.8633,VALID,34,VALID,0.414844,
2013-01-17, 00:22:04,VALID,1010.24,VALID,0,VALID,97.5334,VALID,0,VALID,24.8438,VALID,32,VALID,0.188281,
2013-01-17, 00:23:04,VALID,1010.22,VALID,0,VALID,98.4332,VALID,0,VALID,24.8438,VALID,34,VALID,0.298438,
2013-01-17, 00:24:04,VALID,1010.21,VALID,0,VALID,95.9472,VALID,0,VALID,24.8244,VALID,32,VALID,0.401953,
2013-01-17, 00:25:04,VALID,1010.19,VALID,0,VALID,96.5573,VALID,0,VALID,24.8049,VALID,34,VALID,0.464063,
2013-01-17, 00:26:04,VALID,1010.18,VALID,0,VALID,98.0214,VALID,0,VALID,24.8049,VALID,33,VALID,0.301172,
2013-01-17, 00:27:04,VALID,1010.15,VALID,0,VALID,98.8755,VALID,0,VALID,24.8049,VALID,33,VALID,0.244141,
2013-01-17, 00:28:04,VALID,1010.1,VALID,0,VALID,99.722,VALID,0,VALID,24.8049,VALID,33,VALID,0.175781,
2013-01-17, 00:29:04,VALID,1010.06,VALID,0,VALID,99.9736,VALID,0,VALID,24.7854,VALID,33,VALID,0.125781,
2013-01-17, 00:30:04,VALID,1010.05,VALID,0,VALID,99.1043,VALID,0,VALID,24.7854,VALID,33,VALID,0.208984,
2013-01-17, 00:31:04,VALID,1010,VALID,0,VALID,99.0052,VALID,0,VALID,24.7659,VALID,33,VALID,0,
2013-01-17, 00:32:04,VALID,1010.01,VALID,0,VALID,98.9213,VALID,0,VALID,24.7659,VALID,32,VALID,0.392969,
2013-01-17, 00:33:04,VALID,1009.99,VALID,0,VALID,97.3046,VALID,0,VALID,24.7269,VALID,34,VALID,0.277734,
2013-01-17, 00:34:04,VALID,1009.98,VALID,0,VALID,97.0758,VALID,0,VALID,24.7464,VALID,33,VALID,0.341016,
2013-01-17, 00:35:04,VALID,1009.97,VALID,0,VALID,95.6041,VALID,0,VALID,24.7269,VALID,33,VALID,0.321484,
2013-01-17, 00:36:04,VALID,1009.97,VALID,0,VALID,95.9396,VALID,0,VALID,24.7269,VALID,33,VALID,0.242578,
2013-01-17, 00:37:04,VALID,1009.97,VALID,0,VALID,97.297,VALID,0,VALID,24.7269,VALID,33,VALID,0.05625,
2013-01-17, 00:38:04,VALID,1009.96,VALID,0,VALID,98.0977,VALID,0,VALID,24.7074,VALID,33,VALID,0.0234375,
2013-01-17, 00:39:04,VALID,1009.96,VALID,0,VALID,99.6381,VALID,0,VALID,24.7269,VALID,33,VALID,0.0929687,
2013-01-17, 00:40:04,VALID,1009.96,VALID,0,VALID,99.6533,VALID,0,VALID,24.7269,VALID,33,VALID,0.197266,
2013-01-17, 00:41:04,VALID,1009.93,VALID,0,VALID,100.042,VALID,0,VALID,24.7269,VALID,33,VALID,0.244922,
2013-01-17, 00:42:04,VALID,1009.93,VALID,0,VALID,100.035,VALID,0,VALID,24.7269,VALID,33,VALID,0.489062,
2013-01-17, 00:43:04,VALID,1009.91,VALID,0,VALID,99.3178,VALID,0,VALID,24.7074,VALID,33,VALID,0.307813,
2013-01-17, 00:44:04,VALID,1009.9,VALID,0,VALID,100.103,VALID,0,VALID,24.6879,VALID,33,VALID,0.240625,
2013-01-17, 00:45:04,VALID,1009.87,VALID,0,VALID,100.027,VALID,0,VALID,24.6684,VALID,33,VALID,0.225391,
2013-01-17, 00:46:04,VALID,1009.87,VALID,0,VALID,100.645,VALID,0,VALID,24.7074,VALID,33,VALID,0.236719,
2013-01-17, 00:47:04,VALID,1009.83,VALID,0,VALID,100.271,VALID,0,VALID,24.6684,VALID,33,VALID,0.162891,
2013-01-17, 00:48:04,VALID,1009.81,VALID,0,VALID,100.523,VALID,0,VALID,24.6489,VALID,33,VALID,0.207813,
2013-01-17, 00:49:04,VALID,1009.79,VALID,0,VALID,100.507,VALID,0,VALID,24.6489,VALID,33,VALID,0.214062,
2013-01-17, 00:50:04,VALID,1009.79,VALID,0,VALID,100.767,VALID,0,VALID,24.6276,VALID,33,VALID,0,
2013-01-17, 00:51:04,VALID,1009.74,VALID,0,VALID,100.515,VALID,0,VALID,24.6099,VALID,33,VALID,0.0117188,
2013-01-17, 00:52:04,VALID,1009.76,VALID,0,VALID,100.347,VALID,0,VALID,24.6099,VALID,33,VALID,0.368359,
2013-01-17, 00:53:04,VALID,1009.72,VALID,0,VALID,100.477,VALID,0,VALID,24.5905,VALID,33,VALID,0.250391,
2013-01-17, 00:54:04,VALID,1009.72,VALID,0,VALID,100.637,VALID,0,VALID,24.571,VALID,43,VALID,0.627734,
2013-01-17, 00:55:04,VALID,1009.72,VALID,0,VALID,100.69,VALID,0,VALID,24.571,VALID,51,VALID,0.320313,
2013-01-17, 00:56:04,VALID,1009.71,VALID,0,VALID,100.98,VALID,0,VALID,24.5496,VALID,51,VALID,0.267969,
2013-01-17, 00:57:04,VALID,1009.68,VALID,0,VALID,100.95,VALID,0,VALID,24.5515,VALID,51,VALID,0.21875,
2013-01-17, 00:58:04,VALID,1009.65,VALID,0,VALID,101.247,VALID,0,VALID,24.571,VALID,53,VALID,0.596484,
2013-01-17, 00:59:04,VALID,1009.66,VALID,0,VALID,101.018,VALID,0,VALID,24.5301,VALID,56,VALID,0.397656,
2013-01-17, 01:00:04,VALID,1009.68,VALID,0,VALID,100.95,VALID,0,VALID,24.5515,VALID,56,VALID,0.194922,
2013-01-17, 01:01:04,VALID,1009.65,VALID,0,VALID,101.14,VALID,0,VALID,24.5515,VALID,56,VALID,0.448047,
2013-01-17, 01:02:04,VALID,1009.67,VALID,0,VALID,101.217,VALID,0,VALID,24.5515,VALID,56,VALID,0.189063,
2013-01-17, 01:03:04,VALID,1009.64,VALID,0,VALID,101.11,VALID,0,VALID,24.5301,VALID,55,VALID,0.334766,
2013-01-17, 01:04:04,VALID,1009.64,VALID,0,VALID,100.851,VALID,0,VALID,24.5515,VALID,55,VALID,0.396875,
2013-01-17, 01:05:04,VALID,1009.64,VALID,0,VALID,100.828,VALID,0,VALID,24.532,VALID,55,VALID,0.0316406,
2013-01-17, 01:06:04,VALID,1009.66,VALID,0,VALID,100.645,VALID,0,VALID,24.5728,VALID,56,VALID,0.0503906,
2013-01-17, 01:07:04,VALID,1009.64,VALID,0,VALID,100.446,VALID,0,VALID,24.5728,VALID,55,VALID,0,
2013-01-17, 01:08:04,VALID,1009.64,VALID,0,VALID,100.446,VALID,0,VALID,24.5515,VALID,55,VALID,0.0304688,
2013-01-17, 01:09:04,VALID,1009.63,VALID,0,VALID,100.507,VALID,0,VALID,24.571,VALID,56,VALID,0.101563,
2013-01-17, 01:10:04,VALID,1009.63,VALID,0,VALID,100.065,VALID,0,VALID,24.5515,VALID,55,VALID,0,
2013-01-17, 01:11:04,VALID,1009.61,VALID,0,VALID,99.6762,VALID,0,VALID,24.5515,VALID,55,VALID,0.116016,
2013-01-17, 01:12:04,VALID,1009.63,VALID,0,VALID,99.539,VALID,0,VALID,24.5515,VALID,55,VALID,0,
2013-01-17, 01:13:04,VALID,1009.61,VALID,0,VALID,99.8516,VALID,0,VALID,24.5515,VALID,56,VALID,0,
2013-01-17, 01:14:04,VALID,1009.59,VALID,0,VALID,100.187,VALID,0,VALID,24.571,VALID,55,VALID,0,
2013-01-17, 01:15:04,VALID,1009.57,VALID,0,VALID,100.393,VALID,0,VALID,24.571,VALID,56,VALID,0,
2013-01-17, 01:16:04,VALID,1009.55,VALID,0,VALID,100.195,VALID,0,VALID,24.5496,VALID,55,VALID,0.163672,
2013-01-17, 01:17:04,VALID,1009.54,VALID,0,VALID,99.1195,VALID,0,VALID,24.571,VALID,55,VALID,0.333984,
2013-01-17, 01:18:04,VALID,1009.54,VALID,0,VALID,98.8679,VALID,0,VALID,24.5515,VALID,55,VALID,0.0875,
2013-01-17, 01:19:04,VALID,1009.54,VALID,0,VALID,98.3951,VALID,0,VALID,24.532,VALID,56,VALID,0.239063,
2013-01-17, 01:20:04,VALID,1009.53,VALID,0,VALID,98.174,VALID,0,VALID,24.532,VALID,56,VALID,0,
2013-01-17, 01:21:04,VALID,1009.55,VALID,0,VALID,99.4856,VALID,0,VALID,24.5515,VALID,55,VALID,0.202344,
2013-01-17, 01:22:04,VALID,1009.52,VALID,0,VALID,99.9508,VALID,0,VALID,24.5515,VALID,56,VALID,0.153125,
2013-01-17, 01:23:04,VALID,1009.5,VALID,0,VALID,99.7982,VALID,0,VALID,24.5515,VALID,55,VALID,0.155078,
2013-01-17, 01:24:04,VALID,1009.48,VALID,0,VALID,99.7677,VALID,0,VALID,24.5125,VALID,56,VALID,0.498828,
2013-01-17, 01:25:04,VALID,1009.5,VALID,0,VALID,99.4703,VALID,0,VALID,24.5125,VALID,55,VALID,0.3625,
2013-01-17, 01:26:04,VALID,1009.46,VALID,0,VALID,99.5695,VALID,0,VALID,24.4735,VALID,55,VALID,0.524219,
2013-01-17, 01:27:04,VALID,1009.52,VALID,0,VALID,99.7144,VALID,0,VALID,24.454,VALID,56,VALID,0.363672,
2013-01-17, 01:28:04,VALID,1009.49,VALID,0,VALID,99.5313,VALID,0,VALID,24.454,VALID,48,VALID,0.334766,
2013-01-17, 01:29:04,VALID,1009.49,VALID,0,VALID,99.8745,VALID,0,VALID,24.4345,VALID,48,VALID,0.192188,
2013-01-17, 01:30:04,VALID,1009.53,VALID,0,VALID,99.8135,VALID,0,VALID,24.4345,VALID,49,VALID,0.366016,
2013-01-17, 01:31:04,VALID,1009.49,VALID,0,VALID,99.2797,VALID,0,VALID,24.4345,VALID,49,VALID,0.340234,
2013-01-17, 01:32:04,VALID,1009.49,VALID,0,VALID,99.5085,VALID,0,VALID,24.454,VALID,47,VALID,0.130859,
2013-01-17, 01:33:04,VALID,1009.5,VALID,0,VALID,99.4398,VALID,0,VALID,24.415,VALID,48,VALID,0.532422,
2013-01-17, 01:34:04,VALID,1009.48,VALID,0,VALID,99.0204,VALID,0,VALID,24.4345,VALID,48,VALID,0.103516,
2013-01-17, 01:35:04,VALID,1009.49,VALID,0,VALID,99.1195,VALID,0,VALID,24.415,VALID,48,VALID,0.362109,
2013-01-17, 01:36:04,VALID,1009.47,VALID,0,VALID,99.4398,VALID,0,VALID,24.4345,VALID,49,VALID,0.119531,
2013-01-17, 01:37:04,VALID,1009.45,VALID,0,VALID,99.6991,VALID,0,VALID,24.415,VALID,48,VALID,0,
2013-01-17, 01:38:04,VALID,1009.42,VALID,0,VALID,100.706,VALID,0,VALID,24.454,VALID,48,VALID,0.00078125,
2013-01-17, 01:39:04,VALID,1009.46,VALID,0,VALID,100.439,VALID,0,VALID,24.4345,VALID,48,VALID,0,
2013-01-17, 01:40:04,VALID,1009.44,VALID,0,VALID,100.141,VALID,0,VALID,24.4345,VALID,49,VALID,0.128906,
2013-01-17, 01:41:04,VALID,1009.44,VALID,0,VALID,99.5618,VALID,0,VALID,24.3956,VALID,48,VALID,0.253516,
2013-01-17, 01:42:04,VALID,1009.45,VALID,0,VALID,99.3178,VALID,0,VALID,24.3956,VALID,48,VALID,0.355469,
2013-01-17, 01:43:04,VALID,1009.46,VALID,0,VALID,99.7525,VALID,0,VALID,24.3956,VALID,48,VALID,0.252344,
2013-01-17, 01:44:04,VALID,1009.46,VALID,0,VALID,100.05,VALID,0,VALID,24.3761,VALID,48,VALID,0.165234,
2013-01-17, 01:45:04,VALID,1009.46,VALID,0,VALID,100.058,VALID,0,VALID,24.3761,VALID,48,VALID,0.638281,
2013-01-17, 01:46:04,VALID,1009.49,VALID,0,VALID,99.1653,VALID,0,VALID,24.3566,VALID,49,VALID,0.330859,
2013-01-17, 01:47:04,VALID,1009.46,VALID,0,VALID,97.4419,VALID,0.112112,VALID,24.3352,VALID,58,VALID,0.470313,
2013-01-17, 01:48:04,VALID,1009.45,VALID,0,VALID,97.4571,VALID,0,VALID,24.3566,VALID,58,VALID,0.261328,
2013-01-17, 01:49:04,VALID,1009.41,VALID,0,VALID,97.2131,VALID,0,VALID,24.3352,VALID,54,VALID,0.654688,
2013-01-17, 01:50:04,VALID,1009.42,VALID,0,VALID,95.8023,VALID,0,VALID,24.3158,VALID,48,VALID,0.507422,
2013-01-17, 01:51:04,VALID,1009.43,VALID,0,VALID,96.1074,VALID,0.112112,VALID,24.3352,VALID,44,VALID,0.816016,
2013-01-17, 01:52:04,VALID,1009.43,VALID,0,VALID,95.6193,VALID,0.112112,VALID,24.3158,VALID,50,VALID,0.814453,
2013-01-17, 01:53:04,VALID,1009.46,VALID,0,VALID,96.054,VALID,0.112112,VALID,24.3158,VALID,46,VALID,0.546484,
2013-01-17, 01:54:04,VALID,1009.4,VALID,0,VALID,96.237,VALID,0.112112,VALID,24.3158,VALID,48,VALID,0.531641,
2013-01-17, 01:55:04,VALID,1009.43,VALID,0,VALID,96.1531,VALID,0.112112,VALID,24.3158,VALID,68,VALID,0.611719,
2013-01-17, 01:56:04,VALID,1009.43,VALID,0,VALID,97.846,VALID,0.112112,VALID,24.3158,VALID,68,VALID,0.285547,
2013-01-17, 01:57:04,VALID,1009.43,VALID,0,VALID,97.7469,VALID,0.112112,VALID,24.2963,VALID,58,VALID,0.703125,
2013-01-17, 01:58:04,VALID,1009.44,VALID,0,VALID,96.4582,VALID,0.112112,VALID,24.2963,VALID,60,VALID,0.614062,
2013-01-17, 01:59:04,VALID,1009.45,VALID,0,VALID,95.6727,VALID,0.112112,VALID,24.3158,VALID,51,VALID,1.10195,
2013-01-17, 02:00:04,VALID,1009.43,VALID,0,VALID,95.1008,VALID,0.112112,VALID,24.2963,VALID,68,VALID,1.05352,
2013-01-17, 02:01:04,VALID,1009.44,VALID,0,VALID,95.1694,VALID,0.112112,VALID,24.3158,VALID,71,VALID,0.692969,
2013-01-17, 02:02:04,VALID,1009.45,VALID,0,VALID,95.116,VALID,0,VALID,24.2981,VALID,53,VALID,0.441406,
2013-01-17, 02:03:04,VALID,1009.46,VALID,0,VALID,94.506,VALID,0,VALID,24.2981,VALID,47,VALID,0.573047,
2013-01-17, 02:04:04,VALID,1009.44,VALID,0,VALID,94.3687,VALID,0,VALID,24.3194,VALID,47,VALID,0.101172,
2013-01-17, 02:05:04,VALID,1009.47,VALID,0,VALID,93.9035,VALID,0,VALID,24.2981,VALID,41,VALID,0.772266,
2013-01-17, 02:06:04,VALID,1009.49,VALID,0,VALID,93.2477,VALID,0,VALID,24.3176,VALID,40,VALID,0.466016,
2013-01-17, 02:07:04,VALID,1009.5,VALID,0,VALID,93.4536,VALID,0,VALID,24.3176,VALID,40,VALID,0.123828,
2013-01-17, 02:08:04,VALID,1009.49,VALID,0,VALID,93.9874,VALID,0,VALID,24.3176,VALID,40,VALID,0,
2013-01-17, 02:09:04,VALID,1009.52,VALID,0,VALID,93.507,VALID,0,VALID,24.3176,VALID,39,VALID,0.183984,
2013-01-17, 02:10:04,VALID,1009.48,VALID,0,VALID,93.5527,VALID,0,VALID,24.3371,VALID,40,VALID,0,
2013-01-17, 02:11:04,VALID,1009.48,VALID,0,VALID,94.0865,VALID,0,VALID,24.3176,VALID,40,VALID,0,
2013-01-17, 02:12:04,VALID,1009.48,VALID,0,VALID,94.8415,VALID,0,VALID,24.3371,VALID,39,VALID,0,
2013-01-17, 02:13:04,VALID,1009.47,VALID,0,VALID,94.4297,VALID,0,VALID,24.3371,VALID,39,VALID,0,
2013-01-17, 02:14:04,VALID,1009.47,VALID,0,VALID,94.7576,VALID,0,VALID,24.3176,VALID,40,VALID,0,
2013-01-17, 02:15:04,VALID,1009.46,VALID,0,VALID,95.4058,VALID,0,VALID,24.3371,VALID,40,VALID,0,
2013-01-17, 02:16:04,VALID,1009.47,VALID,0,VALID,95.0855,VALID,0,VALID,24.3389,VALID,40,VALID,0,
2013-01-17, 02:17:04,VALID,1009.48,VALID,0,VALID,93.9493,VALID,0,VALID,24.3,VALID,40,VALID,0.359375,
2013-01-17, 02:18:04,VALID,1009.47,VALID,0,VALID,94.6127,VALID,0,VALID,24.2981,VALID,40,VALID,0.261328,
2013-01-17, 02:19:04,VALID,1009.52,VALID,0,VALID,95.0016,VALID,0,VALID,24.2981,VALID,348,VALID,0.635547,
2013-01-17, 02:20:04,VALID,1009.53,VALID,0,VALID,94.2543,VALID,0,VALID,24.2981,VALID,342,VALID,0.433984,
2013-01-17, 02:21:04,VALID,1009.53,VALID,0,VALID,93.6976,VALID,0,VALID,24.2981,VALID,342,VALID,0.303906,
2013-01-17, 02:22:04,VALID,1009.54,VALID,0,VALID,93.2248,VALID,0,VALID,24.2981,VALID,342,VALID,0.275,
2013-01-17, 02:23:04,VALID,1009.56,VALID,0,VALID,93.568,VALID,0,VALID,24.3176,VALID,342,VALID,0.375,
2013-01-17, 02:24:04,VALID,1009.56,VALID,0,VALID,93.1181,VALID,0,VALID,24.3566,VALID,342,VALID,0.254687,
2013-01-17, 02:25:04,VALID,1009.57,VALID,0,VALID,93.3316,VALID,0,VALID,24.3761,VALID,342,VALID,0.157031,
2013-01-17, 02:26:04,VALID,1009.58,VALID,0,VALID,93.3011,VALID,0,VALID,24.3761,VALID,342,VALID,0.197266,
2013-01-17, 02:27:04,VALID,1009.56,VALID,0,VALID,93.5985,VALID,0,VALID,24.3761,VALID,342,VALID,0.322266,
2013-01-17, 02:28:04,VALID,1009.52,VALID,0,VALID,93.2172,VALID,0,VALID,24.3566,VALID,342,VALID,0.454688,
2013-01-17, 02:29:04,VALID,1009.54,VALID,0,VALID,93.1562,VALID,0,VALID,24.3566,VALID,342,VALID,0.3125,
2013-01-17, 02:30:04,VALID,1009.56,VALID,0,VALID,92.8588,VALID,0,VALID,24.3779,VALID,342,VALID,0.392969,
2013-01-17, 02:31:04,VALID,1009.52,VALID,0,VALID,93.446,VALID,0,VALID,24.3371,VALID,342,VALID,0.328906,
2013-01-17, 02:32:04,VALID,1009.49,VALID,0,VALID,95.1999,VALID,0,VALID,24.3176,VALID,342,VALID,0.247656,
2013-01-17, 02:33:04,VALID,1009.46,VALID,0,VALID,97.4114,VALID,0,VALID,24.2981,VALID,342,VALID,0.312109,
2013-01-17, 02:34:04,VALID,1009.47,VALID,0,VALID,96.7861,VALID,0,VALID,24.2378,VALID,342,VALID,0.371875,
2013-01-17, 02:35:04,VALID,1009.47,VALID,0,VALID,95.7413,VALID,0,VALID,24.1793,VALID,342,VALID,0.307031,
2013-01-17, 02:36:04,VALID,1009.43,VALID,0,VALID,96.9157,VALID,0,VALID,24.1812,VALID,342,VALID,0.0761719,
2013-01-17, 02:37:04,VALID,1009.48,VALID,0,VALID,97.0758,VALID,0,VALID,24.1617,VALID,342,VALID,0.35625,
2013-01-17, 02:38:04,VALID,1009.47,VALID,0,VALID,98.296,VALID,0,VALID,24.1422,VALID,342,VALID,0,
2013-01-17, 02:39:04,VALID,1009.5,VALID,0,VALID,99.2416,VALID,0,VALID,24.1422,VALID,342,VALID,0,
2013-01-17, 02:40:04,VALID,1009.45,VALID,0,VALID,99.7906,VALID,0,VALID,24.1227,VALID,342,VALID,0,
2013-01-17, 02:41:04,VALID,1009.47,VALID,0,VALID,99.6533,VALID,0,VALID,24.1032,VALID,342,VALID,0,
2013-01-17, 02:42:04,VALID,1009.49,VALID,0,VALID,99.7296,VALID,0,VALID,24.0837,VALID,342,VALID,0.283984,
2013-01-17, 02:43:04,VALID,1009.47,VALID,0,VALID,99.9813,VALID,0,VALID,24.0837,VALID,342,VALID,0.0867188,
2013-01-17, 02:44:04,VALID,1009.49,VALID,0,VALID,100.378,VALID,0,VALID,24.0643,VALID,342,VALID,0.333594,
2013-01-17, 02:45:04,VALID,1009.48,VALID,0,VALID,100.355,VALID,0,VALID,24.0643,VALID,342,VALID,0.154297,
2013-01-17, 02:46:04,VALID,1009.49,VALID,0,VALID,99.8821,VALID,0,VALID,24.0448,VALID,342,VALID,0.0046875,
2013-01-17, 02:47:04,VALID,1009.5,VALID,0,VALID,100.599,VALID,0,VALID,24.0448,VALID,342,VALID,0.219141,
2013-01-17, 02:48:04,VALID,1009.49,VALID,0,VALID,100.805,VALID,0,VALID,24.0253,VALID,342,VALID,0.138672,
2013-01-17, 02:49:04,VALID,1009.48,VALID,0,VALID,101.125,VALID,0,VALID,24.0058,VALID,342,VALID,0,
2013-01-17, 02:50:04,VALID,1009.48,VALID,0,VALID,101.316,VALID,0,VALID,23.9863,VALID,342,VALID,0.230078,
2013-01-17, 02:51:04,VALID,1009.5,VALID,0,VALID,101.346,VALID,0,VALID,23.9668,VALID,342,VALID,0.159375,
2013-01-17, 02:52:04,VALID,1009.47,VALID,0,VALID,101.308,VALID,0,VALID,23.9473,VALID,342,VALID,0.222266,
2013-01-17, 02:53:04,VALID,1009.5,VALID,0,VALID,101.392,VALID,0,VALID,23.9084,VALID,342,VALID,0.257813,
2013-01-17, 02:54:04,VALID,1009.5,VALID,0,VALID,101.529,VALID,0,VALID,23.8889,VALID,342,VALID,0,
2013-01-17, 02:55:04,VALID,1009.49,VALID,0,VALID,101.712,VALID,0,VALID,23.8694,VALID,342,VALID,0.0648438,
2013-01-17, 02:56:04,VALID,1009.52,VALID,0,VALID,101.644,VALID,0,VALID,23.8499,VALID,342,VALID,0.296094,
2013-01-17, 02:57:04,VALID,1009.54,VALID,0,VALID,101.598,VALID,0,VALID,23.8109,VALID,342,VALID,0.444141,
2013-01-17, 02:58:04,VALID,1009.54,VALID,0,VALID,101.484,VALID,0,VALID,23.8109,VALID,341,VALID,0.410156,
2013-01-17, 02:59:04,VALID,1009.58,VALID,0,VALID,101.43,VALID,0,VALID,23.8109,VALID,341,VALID,0.210938,
2013-01-17, 03:00:04,VALID,1009.59,VALID,0,VALID,101.476,VALID,0,VALID,23.7896,VALID,341,VALID,0.224219,
2013-01-17, 03:01:04,VALID,1009.59,VALID,0,VALID,101.445,VALID,0,VALID,23.7914,VALID,341,VALID,0.433203,
2013-01-17, 03:02:04,VALID,1009.64,VALID,0,VALID,101.491,VALID,0,VALID,23.7914,VALID,340,VALID,0.593359,
2013-01-17, 03:03:04,VALID,1009.61,VALID,0,VALID,101.331,VALID,0,VALID,23.8109,VALID,330,VALID,0.438672,
2013-01-17, 03:04:04,VALID,1009.59,VALID,0,VALID,101.125,VALID,0,VALID,23.8499,VALID,325,VALID,0.297656,
2013-01-17, 03:05:04,VALID,1009.65,VALID,0,VALID,101.049,VALID,0,VALID,23.8694,VALID,325,VALID,0.021875,
2013-01-17, 03:06:04,VALID,1009.62,VALID,0,VALID,101.041,VALID,0,VALID,23.8694,VALID,325,VALID,0.235547,
2013-01-17, 03:07:04,VALID,1009.63,VALID,0,VALID,100.79,VALID,0,VALID,23.8694,VALID,325,VALID,0.658594,
2013-01-17, 03:08:04,VALID,1009.64,VALID,0,VALID,100.515,VALID,0,VALID,23.8694,VALID,325,VALID,0.406641,
2013-01-17, 03:09:04,VALID,1009.61,VALID,0,VALID,100.378,VALID,0,VALID,23.8694,VALID,325,VALID,0.586719,
2013-01-17, 03:10:04,VALID,1009.6,VALID,0,VALID,100.195,VALID,0,VALID,23.8694,VALID,325,VALID,0.287109,
2013-01-17, 03:11:04,VALID,1009.57,VALID,0,VALID,100.012,VALID,0,VALID,23.8694,VALID,325,VALID,0.352734,
2013-01-17, 03:12:04,VALID,1009.56,VALID,0,VALID,99.8821,VALID,0,VALID,23.8499,VALID,325,VALID,0.304297,
2013-01-17, 03:13:04,VALID,1009.58,VALID,0,VALID,100.088,VALID,0,VALID,23.8304,VALID,325,VALID,0.329297,
2013-01-17, 03:14:04,VALID,1009.53,VALID,0,VALID,100.5,VALID,0,VALID,23.8109,VALID,325,VALID,0.285937,
2013-01-17, 03:15:04,VALID,1009.53,VALID,0,VALID,100.934,VALID,0,VALID,23.772,VALID,325,VALID,0.205078,
2013-01-17, 03:16:04,VALID,1009.54,VALID,0,VALID,101.186,VALID,0,VALID,23.733,VALID,325,VALID,0.0109375,
2013-01-17, 03:17:04,VALID,1009.52,VALID,0,VALID,101.354,VALID,0,VALID,23.694,VALID,325,VALID,0,
2013-01-17, 03:18:04,VALID,1009.54,VALID,0,VALID,101.575,VALID,0.112112,VALID,23.694,VALID,325,VALID,0,
2013-01-17, 03:19:04,VALID,1009.57,VALID,0,VALID,101.781,VALID,0,VALID,23.6356,VALID,325,VALID,0,
2013-01-17, 03:20:04,VALID,1009.55,VALID,0,VALID,101.964,VALID,0,VALID,23.6161,VALID,325,VALID,0,
2013-01-17, 03:21:04,VALID,1009.56,VALID,0,VALID,102.132,VALID,0,VALID,23.5753,VALID,325,VALID,0.147656,
2013-01-17, 03:22:04,VALID,1009.58,VALID,0,VALID,102.254,VALID,0,VALID,23.5363,VALID,325,VALID,0,
2013-01-17, 03:23:04,VALID,1009.59,VALID,0,VALID,102.406,VALID,0,VALID,23.5169,VALID,325,VALID,0,
2013-01-17, 03:24:04,VALID,1009.58,VALID,0,VALID,102.582,VALID,0,VALID,23.5381,VALID,325,VALID,0.133594,
2013-01-17, 03:25:04,VALID,1009.59,VALID,0,VALID,102.78,VALID,0,VALID,23.5186,VALID,325,VALID,0.096875,
2013-01-17, 03:26:04,VALID,1009.58,VALID,0,VALID,102.742,VALID,0,VALID,23.5186,VALID,325,VALID,0.373437,
2013-01-17, 03:27:04,VALID,1009.59,VALID,0,VALID,102.795,VALID,0.112112,VALID,23.5186,VALID,325,VALID,0.260156,
2013-01-17, 03:28:04,VALID,1009.57,VALID,0,VALID,102.849,VALID,0,VALID,23.4797,VALID,325,VALID,0.138281,
2013-01-17, 03:29:04,VALID,1009.58,VALID,0,VALID,102.925,VALID,0.112112,VALID,23.4797,VALID,325,VALID,0.329297,
2013-01-17, 03:30:04,VALID,1009.59,VALID,0,VALID,102.925,VALID,0,VALID,23.4602,VALID,325,VALID,0.24375,
2013-01-17, 03:31:04,VALID,1009.61,VALID,0,VALID,102.902,VALID,0.112112,VALID,23.4194,VALID,325,VALID,0.13125,
2013-01-17, 03:32:04,VALID,1009.59,VALID,0,VALID,103.047,VALID,0,VALID,23.4212,VALID,325,VALID,0,
2013-01-17, 03:33:04,VALID,1009.62,VALID,0,VALID,103.1,VALID,0,VALID,23.4212,VALID,325,VALID,0,
2013-01-17, 03:34:04,VALID,1009.59,VALID,0,VALID,103.093,VALID,0,VALID,23.4017,VALID,325,VALID,0,
2013-01-17, 03:35:04,VALID,1009.59,VALID,0,VALID,103.23,VALID,0,VALID,23.3628,VALID,325,VALID,0,
2013-01-17, 03:36:04,VALID,1009.6,VALID,0,VALID,103.283,VALID,0,VALID,23.3433,VALID,325,VALID,0.194922,
2013-01-17, 03:37:04,VALID,1009.61,VALID,0,VALID,103.367,VALID,0,VALID,23.322,VALID,325,VALID,0.217578,
2013-01-17, 03:38:04,VALID,1009.59,VALID,0,VALID,103.466,VALID,0,VALID,23.3043,VALID,325,VALID,0.0566406,
2013-01-17, 03:39:04,VALID,1009.62,VALID,0,VALID,103.565,VALID,0,VALID,23.2848,VALID,325,VALID,0.1,
2013-01-17, 03:40:04,VALID,1009.61,VALID,0,VALID,103.642,VALID,0,VALID,23.2654,VALID,325,VALID,0,
2013-01-17, 03:41:04,VALID,1009.63,VALID,0,VALID,103.787,VALID,0,VALID,23.2246,VALID,325,VALID,0,
2013-01-17, 03:42:04,VALID,1009.61,VALID,0,VALID,103.901,VALID,0,VALID,23.2459,VALID,325,VALID,0.0269531,
2013-01-17, 03:43:04,VALID,1009.63,VALID,0,VALID,104,VALID,0,VALID,23.2459,VALID,325,VALID,0,
2013-01-17, 03:44:04,VALID,1009.58,VALID,0,VALID,104,VALID,0,VALID,23.2654,VALID,326,VALID,0.324609,
2013-01-17, 03:45:04,VALID,1009.6,VALID,0,VALID,104,VALID,0,VALID,23.2441,VALID,324,VALID,0.365234,
2013-01-17, 03:46:04,VALID,1009.59,VALID,0,VALID,103.916,VALID,0,VALID,23.2654,VALID,325,VALID,0.282422,
2013-01-17, 03:47:04,VALID,1009.6,VALID,0,VALID,103.787,VALID,0,VALID,23.2654,VALID,325,VALID,0.277344,